Location: Del Amo
(33.8464°N, 118.2104°W)
Time: 07:46:42
(UTC+00:00)

ACS3 Solar Sail - Visible Passes

Search period start: 21 May 2026 00:00
Search period end: 31 May 2026 00:00
Orbit: 902 x 937 km, 97.2° (Epoch: 20 May)

Date Brightness Start Highest point End Pass type
(mag) Time Alt. Az. Time Alt. Az. Time Alt. Az.
21 May 3.9 07:19:18 10° NE 07:21:01 15° ENE 07:21:01 15° ENE visible
21 May 2.4 09:00:00 10° N 09:04:29 46° NW 09:04:29 46° NW visible
22 May 3.7 07:27:11 10° NE 07:29:33 18° ENE 07:29:33 18° ENE visible
22 May 2.5 09:08:29 10° N 09:13:01 41° NW 09:13:01 41° NW visible
23 May 3.5 07:35:11 10° NE 07:38:05 22° ENE 07:38:05 22° ENE visible
23 May 2.7 09:17:01 10° N 09:21:33 35° NW 09:21:33 35° NW visible
24 May 3.2 07:43:17 10° NNE 07:46:37 26° ENE 07:46:37 26° ENE visible
24 May 2.9 09:25:36 10° N 09:30:05 30° WNW 09:30:05 30° WNW visible
25 May 3.0 07:51:27 10° NNE 07:55:08 32° ENE 07:55:08 32° ENE visible
25 May 3.1 09:34:14 10° NNW 09:38:36 26° WNW 09:38:36 26° WNW visible
26 May 2.8 07:59:40 10° NNE 08:03:40 37° NE 08:03:40 37° NE visible
26 May 3.3 09:42:56 10° NNW 09:47:08 21° WNW 09:47:08 21° WNW visible
27 May 2.6 08:07:56 10° NNE 08:12:11 44° NE 08:12:11 44° NE visible
27 May 3.5 09:51:44 10° NNW 09:55:31 18° WNW 09:55:39 18° WNW visible
28 May 2.3 08:16:13 10° NNE 08:20:41 51° NE 08:20:41 51° NE visible
28 May 3.6 10:00:40 10° NNW 10:03:46 15° WNW 10:04:09 15° WNW visible
29 May 2.2 08:24:34 10° NNE 08:29:12 57° NNE 08:29:12 57° NNE visible
29 May 3.8 10:09:55 10° NW 10:12:00 12° WNW 10:12:40 12° WNW visible
30 May 2.1 08:32:55 10° N 08:37:43 59° N 08:37:43 59° N visible
